This demonstration page uses our WeatherBlox Daily Observations layout. Learn more.

Left ArrowRight Arrow

Hourly Observations for November 4, 2022

Temp ( °F °C ) Dew Point ( °F °C ) Humidity (%) Winds ( mph kmh ) Pressure ( in mb ) Visibility ( mi km ) Precip ( " mm )
12:56 am 00:56 Cloudy with Light Rain 37 2.8 30 -1.1 75 75 N 20 31 29.97 1015 10 16 0.01 0.13
1:56 am 01:56 Cloudy with Light Rain 35 1.7 32 0 88 88 NNW 17 28 29.97 1015 10 16 0.01 0.13
2:09 am 02:09 Cloudy with Light Rain 36 2 32 0 87 87 N 18 30 30.02 1017 10 16 0.01 0.13
2:23 am 02:23 Cloudy with Light Rain 36 2 30 -1 80 80 N 17 28 30.01 1016 10 16 0.01 0.13
2:56 am 02:56 Clear 34 1.1 31 -0.6 88 88 N 16 26 29.97 1015 10 16 0.01 0.13
3:13 am 03:13 Mostly Cloudy 34 1 30 -1 86 86 N 13 20 30.04 1017 10 16 0.00 0.00
3:56 am 03:56 Cloudy 33 0.6 30 -1.1 88 88 N 21 33 29.96 1014 10 16 0.00 0.00
4:03 am 04:03 Cloudy 34 1 28 -2 80 80 N 20 31 30.01 1016 10 16 0.00 0.00
4:12 am 04:12 Cloudy 32 0 28 -2 86 86 N 17 28 30.02 1017 10 16 0.00 0.00
4:28 am 04:28 Cloudy 32 0 28 -2 86 86 NNW 20 31 30.03 1017 10 16 0.00 0.00
4:35 am 04:35 Cloudy 32 0 28 -2 86 86 N 21 33 30.02 1017 10 16 0.00 0.00
4:43 am 04:43 Mostly Cloudy 32 0 28 -2 86 86 N 18 30 30.03 1017 10 16 0.00 0.00
4:56 am 04:56 Mostly Cloudy 32 0 29 -1.7 88 88 N 17 28 29.96 1015 10 16 0.00 0.00
5:56 am 05:56 Cloudy 32 0 29 -1.7 88 88 N 16 26 30.00 1016 10 16 0.00 0.00
6:56 am 06:56 Cloudy 32 0 28 -2.2 85 85 N 14 22 30.01 1016 10 16 0.00 0.00
7:56 am 07:56 Cloudy 31 -0.6 28 -2.2 89 89 N 14 22 30.00 1016 10 16 0.00 0.00
8:56 am 08:56 Cloudy 32 0 28 -2.2 85 85 N 13 20 30.02 1017 10 16 0.00 0.00
9:56 am 09:56 Sunny 33 0.6 28 -2.2 81 81 N 15 24 30.00 1016 10 16 0.00 0.00
10:56 am 10:56 Mostly Cloudy 34 1.1 28 -2.2 79 79 N 18 30 30.01 1016 10 16 0.00 0.00
11:07 am 11:07 Cloudy 36 2 28 -2 75 75 NNW 20 31 30.05 1018 10 16 0.00 0.00
11:40 am 11:40 Partly Cloudy 37 3 28 -2 70 70 NNW 15 24 30.04 1017 10 16 0.00 0.00
11:56 am 11:56 Mostly Cloudy 39 3.9 29 -1.7 67 67 NNW 14 22 30.01 1016 10 16 0.00 0.00
12:56 pm 12:56 Cloudy 38 3.3 27 -2.8 64 64 N 13 20 30.01 1016 10 16 0.00 0.00
1:56 pm 13:56 Sunny 39 3.9 28 -2.2 64 64 N 13 20 29.97 1015 10 16 0.00 0.00
2:56 pm 14:56 Sunny 39 3.9 27 -2.8 62 62 NNW 15 24 29.94 1014 10 16 0.00 0.00
3:56 pm 15:56 Sunny 41 5 27 -2.8 57 57 N 13 20 29.91 1013 10 16 0.00 0.00
4:56 pm 16:56 Sunny 42 5.6 26 -3.3 53 53 N 13 20 29.90 1013 10 16 0.00 0.00
5:56 pm 17:56 Sunny 40 4.4 27 -2.8 59 59 NNE 7 11 29.89 1012 10 16 0.00 0.00
6:56 pm 18:56 Clear 39 3.9 27 -2.8 62 62 N 6 9 29.89 1012 10 16 0.00 0.00
7:56 pm 19:56 Clear 38 3.3 27 -2.8 64 64 NNW 7 11 29.88 1012 10 16 0.00 0.00
8:56 pm 20:56 Clear 36 2.2 27 -2.8 69 69 N 6 9 29.88 1012 10 16 0.00 0.00
9:56 pm 21:56 Clear 35 1.7 27 -2.8 72 72 Calm 29.88 1012 10 16 0.00 0.00
10:56 pm 22:56 Clear 32 0 26 -3.3 78 78 NNW 3 6 29.85 1011 10 16 0.00 0.00
11:56 pm 23:56 Clear 30 -1.1 25 -3.9 81 81 NW 6 9 29.84 1010 10 16 0.00 0.00

Powered by AerisWeather